QPF
0.03 0.07 0.11 0.11 0.08 0.07 0.05 0.03 0.03 0.03 0.04 0.04 0.04 0.05 0.05 0.04 0.05 0.04 0.05 0.04 0.02 0.01 0.03 0.06 0.09 0.09 0.10 0.08 0.08 0.07 0.05 0.05 0.05 0.05 0.04 0.02 0.02 0.03 0.03 0.04 0.03 0.03 0.03 0.02 0.03 0.03 0.03 0.02 0.02
0.04 0.09 0.18 0.12 0.08 0.07 0.06 0.03 0.04 0.03 0.03 0.03 0.03 0.03 0.04 0.03 0.02 0.02 0.05 0.04 0.02 0.02 0.03 0.07 0.10 0.10 0.08 0.06 0.07 0.08 0.06 0.04 0.04 0.04 0.04 0.02 0.02 0.02 0.02 0.02 0.02 0.01 0.01 0.01 0.01 0.02 0.02 0.01 0.02
0.05 0.11 0.19 0.15 0.10 0.06 0.05 0.04 0.04 0.03 0.03 0.02 0.03 0.04 0.05 0.05 0.03 0.04 0.04 0.02 0.02 0.01 0.03 0.07 0.10 0.10 0.07 0.07 0.06 0.06 0.06 0.04 0.04 0.04 0.05 0.04 0.03 0.02 0.02 0.01 0.01 0.01 0.01 0.00 0.01 0.01 0.01 0.01 0.03
0.07 0.12 0.12 0.13 0.11 0.06 0.05 0.05 0.04 0.04 0.03 0.02 0.03 0.03 0.04 0.08 0.07 0.05 0.02 0.02 0.02 0.02 0.02 0.05 0.09 0.09 0.07 0.05 0.05 0.04 0.03 0.03 0.04 0.03 0.02 0.03 0.03 0.02 0.02 0.01 0.01 0.02 0.02 0.01 0.00 0.01 0.01 0.01 0.02
0.06 0.06 0.07 0.10 0.10 0.08 0.06 0.04 0.04 0.04 0.03 0.02 0.01 0.03 0.04 0.08 0.08 0.06 0.02 0.02 0.02 0.02 0.02 0.03 0.06 0.07 0.06 0.05 0.03 0.03 0.03 0.03 0.03 0.04 0.03 0.03 0.03 0.02 0.02 0.02 0.01 0.01 0.02 0.01 0.01 0.01 0.01 0.01 0.01
0.10 0.06 0.05 0.06 0.08 0.09 0.08 0.06 0.05 0.03 0.02 0.01 0.01 0.03 0.04 0.08 0.09 0.08 0.03 0.02 0.01 0.01 0.01 0.02 0.04 0.04 0.05 0.05 0.04 0.03 0.02 0.03 0.03 0.03 0.01 0.01 0.02 0.01 0.01 0.01 0.01 0.01 0.01 0.01 0.01 0.01 0.01 0.01 0.01
0.10 0.10 0.09 0.06 0.07 0.09 0.10 0.08 0.05 0.03 0.01 0.01 0.01 0.03 0.04 0.06 0.07 0.05 0.02 0.02 0.01 0.01 0.00 0.01 0.02 0.02 0.02 0.03 0.03 0.02 0.02 0.01 0.01 0.01 0.00 0.00 0.00 0.00 0.00 0.00 0.00 0.01 0.01 0.01 0.01 0.01 0.01 0.01 0.01
0.08 0.09 0.12 0.09 0.08 0.08 0.07 0.08 0.06 0.03 0.01 0.00 0.01 0.02 0.03 0.04 0.04 0.03 0.01 0.02 0.01 0.00 0.01 0.01 0.01 0.01 0.01 0.01 0.01 0.01 0.00 0.00 0.00 0.00 0.00 0.00 0.00 0.00 0.00 0.00 0.00 0.00 0.00 0.00 0.00 0.01 0.01 0.01 0.01
0.06 0.10 0.13 0.13 0.09 0.06 0.05 0.06 0.06 0.03 0.01 0.01 0.01 0.02 0.03 0.03 0.03 0.02 0.01 0.01 0.00 0.00 0.00 0.00 0.00 0.00 0.00 0.00 0.00 0.00 0.00 0.00 0.00 0.00 0.00 0.00 0.00 0.00 0.00 0.00 0.00 0.00 0.00 0.00 0.00 0.00 0.01 0.01 0.01
0.04 0.09 0.13 0.12 0.09 0.05 0.04 0.06 0.06 0.04 0.03 0.02 0.01 0.03 0.04 0.03 0.02 0.01 0.00 0.00 0.00 0.00 0.00 0.00 0.00 0.00 0.00 0.00 0.00 0.00 0.00 0.00 0.00 0.00 0.00 0.00 0.00 0.00 0.00 0.00 0.00 0.00 0.00 0.00 0.00 0.00 0.00 0.00 0.00
0.04 0.08 0.09 0.09 0.08 0.06 0.06 0.08 0.05 0.05 0.03 0.02 0.03 0.06 0.07 0.03 0.01 0.00 0.00 0.00 0.00 0.00 0.00 0.00 0.00 0.00 0.00 0.00 0.00 0.00 0.00 0.00 0.00 0.00 0.00 0.00 0.00 0.00 0.00 0.00 0.00 0.00 0.00 0.00 0.00 0.00 0.00 0.00 0.01
0.04 0.06 0.08 0.11 0.09 0.07 0.07 0.06 0.04 0.04 0.03 0.03 0.03 0.03 0.02 0.01 0.00 0.00 0.00 0.00 0.00 0.00 0.00 0.00 0.00 0.00 0.00 0.00 0.00 0.00 0.00 0.00 0.00 0.00 0.00 0.00 0.00 0.00 0.00 0.00 0.00 0.00 0.00 0.00 0.00 0.00 0.00 0.00 0.00
0.04 0.07 0.08 0.10 0.09 0.08 0.06 0.04 0.04 0.04 0.04 0.03 0.02 0.01 0.00 0.00 0.00 0.00 0.00 0.00 0.00 0.00 0.00 0.00 0.00 0.00 0.00 0.00 0.00 0.00 0.00 0.00 0.00 0.00 0.00 0.00 0.00 0.00 0.00 0.00 0.00 0.00 0.00 0.00 0.00 0.00 0.01 0.01 0.01
0.04 0.07 0.10 0.09 0.10 0.10 0.06 0.04 0.03 0.04 0.03 0.03 0.02 0.01 0.01 0.01 0.00 0.00 0.00 0.00 0.00 0.00 0.00 0.00 0.00 0.00 0.00 0.00 0.00 0.00 0.00 0.00 0.00 0.00 0.00 0.00 0.00 0.00 0.00 0.00 0.00 0.00 0.00 0.00 0.00 0.01 0.01 0.01 0.01
0.06 0.09 0.13 0.11 0.11 0.11 0.07 0.04 0.03 0.02 0.02 0.02 0.01 0.01 0.01 0.01 0.01 0.00 0.00 0.00 0.00 0.00 0.00 0.00 0.00 0.00 0.00 0.00 0.00 0.00 0.00 0.00 0.00 0.00 0.00 0.00 0.00 0.00 0.00 0.00 0.00 0.00 0.00 0.00 0.00 0.00 0.01 0.01 0.01
0.09 0.13 0.14 0.14 0.11 0.09 0.07 0.06 0.04 0.03 0.02 0.02 0.02 0.01 0.01 0.01 0.01 0.00 0.00 0.00 0.00 0.00 0.00 0.00 0.00 0.00 0.00 0.00 0.00 0.00 0.00 0.00 0.00 0.00 0.00 0.00 0.00 0.00 0.00 0.00 0.00 0.00 0.00 0.00 0.00 0.00 0.01 0.01 0.02
0.12 0.13 0.14 0.15 0.12 0.09 0.08 0.07 0.05 0.04 0.03 0.02 0.02 0.02 0.01 0.01 0.01 0.01 0.00 0.00 0.00 0.00 0.00 0.00 0.00 0.00 0.00 0.00 0.00 0.00 0.00 0.00 0.00 0.00 0.00 0.00 0.00 0.00 0.00 0.00 0.00 0.00 0.00 0.00 0.00 0.00 0.01 0.02 0.02
0.10 0.10 0.11 0.13 0.11 0.08 0.08 0.07 0.05 0.05 0.03 0.02 0.02 0.01 0.01 0.01 0.01 0.01 0.00 0.00 0.00 0.00 0.00 0.00 0.00 0.00 0.00 0.00 0.00 0.00 0.00 0.00 0.00 0.00 0.00 0.00 0.00 0.00 0.00 0.00 0.00 0.00 0.00 0.00 0.00 0.00 0.01 0.02 0.01
0.08 0.10 0.12 0.12 0.09 0.08 0.07 0.07 0.06 0.05 0.03 0.02 0.01 0.01 0.01 0.00 0.01 0.00 0.00 0.00 0.01 0.00 0.00 0.00 0.00 0.00 0.00 0.00 0.00 0.00 0.00 0.00 0.00 0.00 0.00 0.00 0.00 0.00 0.00 0.00 0.00 0.00 0.00 0.00 0.00 0.01 0.01 0.01 0.01
0.11 0.10 0.12 0.11 0.09 0.07 0.06 0.06 0.05 0.04 0.03 0.02 0.01 0.01 0.00 0.00 0.01 0.01 0.00 0.01 0.01 0.00 0.00 0.00 0.00 0.00 0.00 0.00 0.00 0.00 0.00 0.00 0.00 0.00 0.00 0.00 0.00 0.00 0.00 0.00 0.00 0.00 0.00 0.00 0.01 0.01 0.01 0.00 0.01
0.12 0.09 0.08 0.09 0.08 0.06 0.05 0.05 0.04 0.03 0.02 0.02 0.01 0.00 0.00 0.00 0.00 0.00 0.00 0.01 0.00 0.00 0.00 0.00 0.00 0.00 0.00 0.00 0.00 0.00 0.00 0.00 0.00 0.00 0.00 0.00 0.00 0.00 0.00 0.00 0.00 0.00 0.00 0.00 0.00 0.01 0.01 0.01 0.00
0.12 0.08 0.07 0.09 0.07 0.05 0.03 0.04 0.03 0.02 0.01 0.01 0.01 0.01 0.00 0.00 0.00 0.00 0.01 0.01 0.00 0.00 0.00 0.00 0.00 0.00 0.00 0.00 0.00 0.00 0.00 0.00 0.00 0.00 0.00 0.00 0.00 0.00 0.00 0.00 0.00 0.00 0.00 0.00 0.00 0.00 0.00 0.01 0.01
0.09 0.08 0.08 0.08 0.06 0.04 0.03 0.02 0.01 0.01 0.01 0.00 0.00 0.00 0.01 0.00 0.01 0.01 0.01 0.01 0.00 0.00 0.00 0.00 0.00 0.00 0.00 0.00 0.00 0.00 0.00 0.00 0.00 0.00 0.00 0.00 0.00 0.00 0.00 0.00 0.00 0.00 0.00 0.00 0.00 0.00 0.00 0.00 0.01
0.06 0.09 0.10 0.08 0.06 0.06 0.04 0.02 0.01 0.00 0.00 0.00 0.00 0.00 0.00 0.00 0.01 0.01 0.01 0.01 0.00 0.00 0.00 0.00 0.00 0.00 0.00 0.00 0.00 0.00 0.00 0.00 0.00 0.00 0.00 0.00 0.00 0.00 0.00 0.00 0.00 0.00 0.00 0.00 0.00 0.00 0.00 0.00 0.00
0.08 0.09 0.11 0.09 0.07 0.05 0.03 0.02 0.00 0.00 0.00 0.00 0.00 0.00 0.00 0.00 0.00 0.01 0.01 0.01 0.00 0.00 0.00 0.00 0.00 0.00 0.00 0.00 0.00 0.00 0.00 0.00 0.00 0.00 0.00 0.00 0.00 0.00 0.00 0.00 0.00 0.00 0.00 0.00 0.00 0.00 0.00 0.00 0.00
0.09 0.07 0.06 0.05 0.04 0.03 0.01 0.01 0.00 0.00 0.00 0.00 0.00 0.00 0.00 0.00 0.00 0.00 0.00 0.00 0.00 0.00 0.00 0.00 0.00 0.00 0.00 0.00 0.00 0.00 0.00 0.00 0.00 0.00 0.00 0.00 0.00 0.00 0.00 0.00 0.00 0.00 0.00 0.00 0.00 0.00 0.00 0.00 0.00
0.07 0.07 0.03 0.02 0.01 0.01 0.01 0.00 0.00 0.00 0.00 0.00 0.00 0.00 0.00 0.00 0.00 0.00 0.00 0.00 0.00 0.00 0.00 0.00 0.00 0.00 0.00 0.00 0.00 0.00 0.00 0.00 0.00 0.00 0.00 0.00 0.00 0.00 0.00 0.00 0.00 0.00 0.00 0.00 0.00 0.00 0.00 0.01 0.01
0.06 0.04 0.02 0.02 0.01 0.01 0.01 0.00 0.00 0.00 0.00 0.00 0.00 0.00 0.00 0.00 0.00 0.00 0.00 0.00 0.00 0.00 0.00 0.00 0.00 0.00 0.00 0.00 0.00 0.00 0.00 0.00 0.00 0.00 0.00 0.00 0.00 0.00 0.00 0.00 0.00 0.00 0.00 0.00 0.00 0.00 0.00 0.01 0.01
0.05 0.03 0.02 0.02 0.01 0.01 0.00 0.00 0.00 0.00 0.00 0.00 0.00 0.00 0.00 0.00 0.00 0.00 0.00 0.00 0.00 0.00 0.00 0.00 0.00 0.00 0.00 0.00 0.00 0.00 0.00 0.00 0.00 0.00 0.00 0.00 0.00 0.00 0.00 0.00 0.00 0.00 0.00 0.00 0.00 0.00 0.00 0.01 0.01
0.03 0.03 0.01 0.02 0.01 0.00 0.00 0.00 0.00 0.00 0.00 0.00 0.01 0.00 0.00 0.00 0.00 0.00 0.00 0.00 0.00 0.00 0.00 0.00 0.00 0.00 0.00 0.00 0.00 0.00 0.00 0.00 0.00 0.00 0.00 0.00 0.00 0.00 0.00 0.00 0.00 0.00 0.00 0.00 0.00 0.00 0.00 0.01 0.01
MSLP
1011.86 1012.07 1012.60 1013.36 1014.24 1015.08 1015.76 1016.19 1016.36 1016.30 1016.11 1015.89 1015.73 1015.66 1015.68 1015.74 1015.79 1015.76 1015.64 1015.43 1015.19 1014.96 1014.82 1014.79 1014.89 1015.08 1015.31 1015.52 1015.67 1015.72 1015.69 1015.59 1015.48 1015.38 1015.33 1015.34 1015.39 1015.44 1015.47 1015.46 1015.38 1015.25 1015.09 1014.93 1014.79 1014.68 1014.62 1014.59 1014.54
1012.17 1012.53 1013.16 1013.96 1014.80 1015.52 1016.02 1016.25 1016.22 1015.99 1015.69 1015.42 1015.27 1015.25 1015.35 1015.51 1015.65 1015.70 1015.64 1015.48 1015.27 1015.07 1014.95 1014.95 1015.09 1015.32 1015.60 1015.85 1016.03 1016.11 1016.10 1016.00 1015.88 1015.77 1015.70 1015.68 1015.69 1015.70 1015.68 1015.62 1015.50 1015.34 1015.15 1014.97 1014.83 1014.73 1014.67 1014.62 1014.56
1012.60 1013.08 1013.78 1014.56 1015.30 1015.86 1016.16 1016.18 1015.96 1015.60 1015.23 1014.95 1014.84 1014.91 1015.11 1015.38 1015.60 1015.73 1015.72 1015.59 1015.40 1015.23 1015.13 1015.16 1015.33 1015.60 1015.91 1016.19 1016.40 1016.50 1016.49 1016.40 1016.28 1016.15 1016.06 1016.01 1015.99 1015.96 1015.91 1015.81 1015.66 1015.47 1015.27 1015.08 1014.93 1014.82 1014.76 1014.70 1014.62
1013.11 1013.69 1014.39 1015.11 1015.71 1016.09 1016.19 1016.02 1015.66 1015.22 1014.83 1014.60 1014.57 1014.75 1015.06 1015.42 1015.72 1015.89 1015.92 1015.81 1015.63 1015.47 1015.39 1015.44 1015.63 1015.92 1016.24 1016.55 1016.76 1016.87 1016.86 1016.76 1016.63 1016.49 1016.39 1016.32 1016.27 1016.23 1016.15 1016.04 1015.87 1015.67 1015.46 1015.27 1015.11 1014.99 1014.91 1014.83 1014.72
1013.66 1014.28 1014.96 1015.58 1016.02 1016.22 1016.14 1015.84 1015.39 1014.93 1014.59 1014.45 1014.53 1014.82 1015.24 1015.67 1016.02 1016.21 1016.24 1016.13 1015.95 1015.79 1015.72 1015.79 1015.99 1016.28 1016.61 1016.91 1017.11 1017.20 1017.17 1017.06 1016.91 1016.77 1016.65 1016.58 1016.53 1016.48 1016.41 1016.29 1016.13 1015.93 1015.72 1015.52 1015.35 1015.21 1015.10 1014.99 1014.84
1014.19 1014.81 1015.43 1015.93 1016.22 1016.26 1016.06 1015.67 1015.22 1014.81 1014.56 1014.54 1014.76 1015.15 1015.64 1016.12 1016.48 1016.66 1016.67 1016.54 1016.35 1016.18 1016.12 1016.19 1016.39 1016.68 1016.99 1017.26 1017.43 1017.49 1017.43 1017.30 1017.13 1016.97 1016.86 1016.78 1016.74 1016.71 1016.66 1016.56 1016.41 1016.22 1016.01 1015.80 1015.61 1015.44 1015.29 1015.14 1014.95
1014.68 1015.27 1015.78 1016.15 1016.31 1016.23 1015.96 1015.57 1015.16 1014.86 1014.75 1014.87 1015.21 1015.69 1016.22 1016.70 1017.03 1017.17 1017.14 1016.97 1016.77 1016.60 1016.53 1016.60 1016.79 1017.06 1017.35 1017.58 1017.71 1017.72 1017.63 1017.46 1017.28 1017.12 1017.00 1016.94 1016.92 1016.90 1016.87 1016.80 1016.67 1016.49 1016.28 1016.05 1015.83 1015.62 1015.42 1015.22 1015.01
1015.12 1015.63 1016.03 1016.27 1016.31 1016.17 1015.88 1015.53 1015.23 1015.07 1015.11 1015.37 1015.80 1016.34 1016.87 1017.32 1017.59 1017.67 1017.58 1017.38 1017.15 1016.98 1016.91 1016.98 1017.16 1017.41 1017.65 1017.84 1017.93 1017.90 1017.77 1017.58 1017.39 1017.22 1017.11 1017.06 1017.06 1017.06 1017.05 1016.99 1016.87 1016.70 1016.48 1016.23 1015.97 1015.71 1015.46 1015.22 1014.97
1015.50 1015.90 1016.19 1016.31 1016.27 1016.09 1015.84 1015.58 1015.41 1015.40 1015.58 1015.94 1016.44 1016.99 1017.49 1017.87 1018.07 1018.08 1017.93 1017.70 1017.46 1017.29 1017.23 1017.29 1017.46 1017.68 1017.90 1018.04 1018.09 1018.02 1017.88 1017.68 1017.48 1017.32 1017.22 1017.18 1017.18 1017.20 1017.19 1017.14 1017.02 1016.84 1016.60 1016.32 1016.02 1015.72 1015.42 1015.14 1014.87
1015.80 1016.10 1016.27 1016.30 1016.21 1016.04 1015.85 1015.70 1015.66 1015.78 1016.08 1016.51 1017.02 1017.54 1017.98 1018.28 1018.40 1018.34 1018.16 1017.91 1017.68 1017.52 1017.47 1017.54 1017.70 1017.89 1018.07 1018.18 1018.20 1018.12 1017.97 1017.78 1017.59 1017.45 1017.36 1017.32 1017.32 1017.33 1017.31 1017.25 1017.12 1016.92 1016.66 1016.35 1016.02 1015.68 1015.34 1015.03 1014.75
1016.03 1016.22 1016.30 1016.27 1016.16 1016.03 1015.91 1015.88 1015.96 1016.18 1016.54 1016.99 1017.48 1017.93 1018.29 1018.51 1018.56 1018.46 1018.26 1018.03 1017.82 1017.69 1017.66 1017.73 1017.87 1018.04 1018.19 1018.28 1018.29 1018.21 1018.08 1017.91 1017.75 1017.63 1017.54 1017.51 1017.49 1017.48 1017.44 1017.35 1017.20 1016.98 1016.71 1016.38 1016.02 1015.66 1015.30 1014.98 1014.69
1016.18 1016.28 1016.30 1016.24 1016.15 1016.08 1016.05 1016.11 1016.27 1016.55 1016.92 1017.35 1017.77 1018.14 1018.41 1018.55 1018.56 1018.45 1018.28 1018.09 1017.92 1017.83 1017.83 1017.90 1018.03 1018.17 1018.30 1018.37 1018.38 1018.32 1018.22 1018.10 1017.98 1017.88 1017.81 1017.76 1017.72 1017.68 1017.61 1017.49 1017.31 1017.08 1016.79 1016.46 1016.10 1015.73 1015.37 1015.04 1014.76
1016.25 1016.30 1016.29 1016.25 1016.21 1016.21 1016.26 1016.40 1016.61 1016.90 1017.23 1017.59 1017.92 1018.19 1018.38 1018.47 1018.47 1018.38 1018.26 1018.14 1018.04 1018.00 1018.02 1018.09 1018.20 1018.32 1018.42 1018.48 1018.50 1018.48 1018.42 1018.35 1018.27 1018.20 1018.14 1018.08 1018.02 1017.94 1017.83 1017.68 1017.48 1017.25 1016.97 1016.65 1016.30 1015.94 1015.59 1015.28 1015.01
1016.27 1016.30 1016.31 1016.32 1016.36 1016.44 1016.58 1016.76 1016.98 1017.23 1017.49 1017.74 1017.96 1018.14 1018.26 1018.32 1018.34 1018.31 1018.27 1018.23 1018.21 1018.22 1018.26 1018.33 1018.42 1018.51 1018.58 1018.64 1018.67 1018.68 1018.68 1018.66 1018.62 1018.58 1018.52 1018.45 1018.36 1018.24 1018.10 1017.93 1017.73 1017.50 1017.24 1016.96 1016.65 1016.32 1016.00 1015.70 1015.44
1016.27 1016.33 1016.40 1016.50 1016.64 1016.81 1017.00 1017.21 1017.41 1017.59 1017.74 1017.87 1017.97 1018.06 1018.12 1018.18 1018.24 1018.29 1018.34 1018.40 1018.45 1018.51 1018.57 1018.63 1018.69 1018.74 1018.80 1018.85 1018.90 1018.94 1018.98 1019.00 1019.01 1018.98 1018.93 1018.84 1018.72 1018.58 1018.41 1018.23 1018.04 1017.84 1017.62 1017.38 1017.12 1016.84 1016.55 1016.27 1016.02
1016.31 1016.44 1016.60 1016.81 1017.06 1017.32 1017.56 1017.76 1017.91 1017.99 1018.02 1018.02 1018.00 1018.00 1018.03 1018.10 1018.20 1018.34 1018.49 1018.63 1018.76 1018.86 1018.93 1018.97 1019.00 1019.02 1019.05 1019.10 1019.16 1019.23 1019.30 1019.35 1019.38 1019.37 1019.31 1019.21 1019.07 1018.91 1018.73 1018.56 1018.39 1018.22 1018.05 1017.87 1017.66 1017.43 1017.18 1016.93 1016.68
1016.43 1016.66 1016.94 1017.28 1017.63 1017.97 1018.23 1018.41 1018.48 1018.45 1018.35 1018.21 1018.09 1018.01 1018.01 1018.08 1018.24 1018.45 1018.67 1018.89 1019.07 1019.20 1019.28 1019.31 1019.31 1019.31 1019.33 1019.36 1019.43 1019.52 1019.61 1019.68 1019.72 1019.71 1019.65 1019.53 1019.38 1019.21 1019.04 1018.88 1018.74 1018.62 1018.50 1018.37 1018.22 1018.04 1017.83 1017.59 1017.35
1016.67 1017.01 1017.43 1017.88 1018.33 1018.72 1018.99 1019.12 1019.10 1018.95 1018.71 1018.45 1018.21 1018.07 1018.03 1018.12 1018.31 1018.57 1018.85 1019.12 1019.34 1019.49 1019.57 1019.59 1019.58 1019.57 1019.58 1019.62 1019.69 1019.79 1019.89 1019.97 1020.01 1019.99 1019.91 1019.79 1019.63 1019.46 1019.31 1019.18 1019.08 1019.00 1018.93 1018.85 1018.75 1018.61 1018.42 1018.21 1017.98
1017.02 1017.48 1018.02 1018.58 1019.10 1019.51 1019.76 1019.82 1019.70 1019.42 1019.05 1018.67 1018.34 1018.13 1018.06 1018.15 1018.36 1018.65 1018.97 1019.27 1019.51 1019.67 1019.75 1019.78 1019.77 1019.76 1019.78 1019.83 1019.92 1020.02 1020.13 1020.20 1020.22 1020.19 1020.11 1019.97 1019.82 1019.67 1019.54 1019.45 1019.39 1019.35 1019.32 1019.28 1019.21 1019.10 1018.94 1018.75 1018.54
1017.44 1018.01 1018.65 1019.28 1019.84 1020.24 1020.44 1020.41 1020.17 1019.77 1019.28 1018.80 1018.40 1018.14 1018.04 1018.12 1018.34 1018.64 1018.97 1019.28 1019.53 1019.70 1019.79 1019.84 1019.85 1019.87 1019.92 1019.99 1020.10 1020.21 1020.31 1020.38 1020.39 1020.34 1020.24 1020.12 1019.98 1019.85 1019.75 1019.70 1019.67 1019.67 1019.67 1019.66 1019.61 1019.52 1019.39 1019.22 1019.03
1017.87 1018.52 1019.22 1019.88 1020.42 1020.77 1020.89 1020.76 1020.41 1019.90 1019.32 1018.76 1018.31 1018.02 1017.92 1017.99 1018.20 1018.51 1018.84 1019.15 1019.40 1019.58 1019.69 1019.77 1019.82 1019.89 1019.98 1020.10 1020.23 1020.36 1020.46 1020.52 1020.52 1020.46 1020.36 1020.24 1020.12 1020.02 1019.97 1019.95 1019.96 1019.98 1020.00 1020.00 1019.96 1019.88 1019.77 1019.62 1019.47
1018.22 1018.92 1019.63 1020.26 1020.74 1021.00 1021.01 1020.77 1020.31 1019.72 1019.08 1018.49 1018.03 1017.74 1017.65 1017.73 1017.95 1018.26 1018.59 1018.89 1019.14 1019.34 1019.48 1019.60 1019.71 1019.84 1019.99 1020.16 1020.33 1020.48 1020.59 1020.65 1020.64 1020.58 1020.48 1020.38 1020.28 1020.22 1020.20 1020.21 1020.25 1020.29 1020.32 1020.32 1020.28 1020.21 1020.11 1019.99 1019.88
1018.45 1019.14 1019.80 1020.35 1020.73 1020.87 1020.75 1020.40 1019.86 1019.21 1018.55 1017.98 1017.54 1017.30 1017.24 1017.36 1017.61 1017.92 1018.26 1018.56 1018.83 1019.04 1019.22 1019.39 1019.57 1019.76 1019.98 1020.21 1020.42 1020.60 1020.73 1020.78 1020.78 1020.72 1020.64 1020.55 1020.49 1020.46 1020.47 1020.51 1020.57 1020.62 1020.65 1020.64 1020.60 1020.53 1020.44 1020.35 1020.28
1018.51 1019.14 1019.71 1020.14 1020.36 1020.36 1020.11 1019.65 1019.05 1018.39 1017.76 1017.24 1016.89 1016.73 1016.76 1016.94 1017.23 1017.57 1017.92 1018.24 1018.52 1018.76 1018.98 1019.19 1019.43 1019.69 1019.97 1020.26 1020.52 1020.73 1020.88 1020.95 1020.96 1020.91 1020.85 1020.79 1020.75 1020.75 1020.79 1020.85 1020.91 1020.96 1020.98 1020.97 1020.92 1020.85 1020.77 1020.71 1020.67
1018.43 1018.95 1019.38 1019.64 1019.70 1019.53 1019.15 1018.62 1017.99 1017.35 1016.80 1016.38 1016.15 1016.11 1016.25 1016.52 1016.88 1017.27 1017.64 1017.98 1018.28 1018.54 1018.79 1019.06 1019.34 1019.66 1020.00 1020.33 1020.64 1020.88 1021.06 1021.15 1021.18 1021.16 1021.11 1021.07 1021.06 1021.08 1021.14 1021.21 1021.27 1021.32 1021.34 1021.31 1021.26 1021.19 1021.12 1021.08 1021.06
1018.23 1018.62 1018.87 1018.95 1018.82 1018.50 1018.01 1017.42 1016.79 1016.22 1015.76 1015.49 1015.41 1015.52 1015.79 1016.17 1016.61 1017.06 1017.47 1017.83 1018.15 1018.43 1018.71 1019.00 1019.33 1019.69 1020.07 1020.45 1020.79 1021.07 1021.27 1021.39 1021.44 1021.45 1021.43 1021.41 1021.41 1021.45 1021.51 1021.58 1021.65 1021.69 1021.70 1021.67 1021.61 1021.55 1021.49 1021.46 1021.46
1017.99 1018.22 1018.28 1018.16 1017.86 1017.39 1016.82 1016.19 1015.60 1015.11 1014.79 1014.67 1014.75 1015.02 1015.43 1015.93 1016.46 1016.96 1017.41 1017.80 1018.13 1018.43 1018.73 1019.04 1019.40 1019.78 1020.19 1020.60 1020.97 1021.28 1021.51 1021.66 1021.74 1021.77 1021.78 1021.78 1021.80 1021.84 1021.91 1021.98 1022.04 1022.07 1022.08 1022.05 1021.99 1021.93 1021.88 1021.85 1021.86
1017.74 1017.80 1017.68 1017.38 1016.92 1016.34 1015.70 1015.07 1014.53 1014.15 1013.96 1014.00 1014.24 1014.65 1015.19 1015.79 1016.40 1016.95 1017.44 1017.85 1018.20 1018.51 1018.82 1019.15 1019.52 1019.93 1020.35 1020.78 1021.17 1021.51 1021.77 1021.95 1022.06 1022.12 1022.15 1022.17 1022.20 1022.25 1022.31 1022.37 1022.43 1022.46 1022.47 1022.45 1022.40 1022.35 1022.31 1022.28 1022.28
1017.49 1017.41 1017.13 1016.67 1016.09 1015.42 1014.75 1014.14 1013.66 1013.39 1013.33 1013.50 1013.87 1014.40 1015.04 1015.72 1016.37 1016.97 1017.49 1017.92 1018.29 1018.62 1018.94 1019.29 1019.67 1020.09 1020.53 1020.97 1021.39 1021.74 1022.03 1022.25 1022.39 1022.48 1022.53 1022.57 1022.61 1022.66 1022.72 1022.78 1022.83 1022.87 1022.88 1022.87 1022.85 1022.81 1022.77 1022.75 1022.73
1017.24 1017.02 1016.61 1016.04 1015.37 1014.65 1013.97 1013.40 1012.99 1012.81 1012.85 1013.12 1013.59 1014.20 1014.89 1015.61 1016.30 1016.93 1017.47 1017.92 1018.32 1018.68 1019.03 1019.40 1019.81 1020.25 1020.70 1021.16 1021.59 1021.97 1022.28 1022.53 1022.70 1022.82 1022.89 1022.95 1023.00 1023.06 1023.12 1023.18 1023.24 1023.28 1023.31 1023.32 1023.31 1023.29 1023.26 1023.23 1023.21
Thickness
5791 5794 5795 5787 5775 5766 5757 5763 5772 5772 5774 5780 5784 5783 5777 5770 5766 5756 5770 5778 5777 5775 5772 5768 5765 5764 5762 5760 5759 5757 5755 5754 5752 5751 5749 5748 5747 5746 5745 5744 5743 5742 5742 5742 5741 5741 5742 5742 5742
5792 5793 5788 5781 5766 5752 5750 5763 5767 5773 5778 5783 5783 5781 5776 5768 5773 5771 5772 5774 5775 5773 5771 5767 5763 5761 5760 5758 5756 5755 5753 5751 5750 5748 5747 5745 5744 5743 5742 5741 5741 5740 5740 5739 5739 5739 5739 5740 5740
5791 5790 5780 5773 5762 5755 5753 5763 5769 5775 5781 5781 5777 5777 5772 5766 5771 5771 5773 5774 5773 5770 5768 5763 5760 5759 5757 5755 5754 5752 5750 5749 5747 5746 5744 5743 5742 5741 5740 5739 5739 5738 5737 5737 5737 5737 5737 5737 5738
5787 5782 5777 5766 5755 5759 5762 5766 5771 5771 5775 5780 5777 5769 5769 5773 5773 5773 5773 5773 5770 5768 5765 5760 5758 5756 5754 5753 5751 5750 5748 5746 5745 5743 5742 5741 5740 5739 5738 5737 5736 5736 5735 5735 5735 5735 5735 5735 5736
5783 5775 5764 5756 5756 5761 5767 5771 5773 5770 5770 5774 5775 5764 5760 5769 5774 5773 5771 5770 5768 5766 5763 5759 5755 5754 5752 5751 5749 5747 5746 5744 5743 5741 5740 5739 5737 5736 5736 5735 5734 5733 5733 5733 5732 5732 5733 5733 5734
5772 5770 5756 5749 5752 5759 5765 5771 5772 5769 5769 5772 5771 5763 5757 5767 5769 5768 5768 5767 5766 5764 5761 5758 5753 5752 5750 5748 5747 5745 5743 5742 5740 5739 5738 5736 5736 5735 5733 5733 5732 5731 5731 5730 5730 5730 5730 5731 5732
5765 5761 5753 5753 5750 5752 5760 5771 5769 5767 5767 5770 5774 5761 5756 5762 5765 5766 5766 5765 5763 5761 5759 5758 5755 5752 5749 5746 5745 5743 5741 5740 5738 5737 5736 5735 5734 5733 5731 5731 5730 5729 5728 5728 5728 5727 5728 5728 5729
5766 5760 5751 5751 5749 5750 5762 5768 5770 5770 5766 5775 5776 5761 5754 5761 5764 5764 5763 5761 5760 5760 5758 5756 5754 5753 5751 5748 5743 5741 5739 5737 5736 5735 5734 5733 5733 5732 5730 5730 5727 5726 5726 5725 5725 5724 5725 5725 5726
5764 5753 5745 5748 5749 5752 5762 5763 5767 5775 5771 5771 5774 5771 5767 5766 5764 5760 5758 5758 5757 5757 5757 5756 5754 5751 5749 5747 5743 5741 5739 5737 5736 5735 5733 5733 5735 5733 5732 5727 5725 5724 5723 5722 5722 5722 5722 5723 5725
5757 5745 5747 5755 5759 5758 5761 5763 5764 5765 5762 5761 5763 5765 5766 5763 5761 5757 5755 5755 5755 5755 5756 5756 5753 5751 5749 5746 5744 5742 5741 5738 5737 5735 5734 5734 5732 5730 5729 5724 5723 5722 5721 5721 5720 5720 5722 5724 5727
5751 5745 5751 5756 5761 5762 5759 5760 5765 5761 5754 5759 5758 5758 5760 5759 5759 5757 5756 5757 5756 5756 5755 5755 5753 5751 5749 5746 5744 5741 5739 5736 5736 5733 5732 5731 5731 5730 5728 5727 5725 5723 5722 5722 5721 5723 5723 5724 5724
5745 5746 5753 5754 5757 5757 5757 5757 5757 5758 5758 5767 5765 5762 5759 5757 5757 5756 5756 5756 5756 5755 5753 5753 5753 5751 5748 5746 5743 5740 5739 5736 5734 5732 5731 5730 5729 5728 5726 5725 5723 5722 5721 5719 5720 5720 5721 5722 5723
5740 5742 5749 5753 5754 5755 5755 5753 5753 5752 5760 5765 5762 5759 5757 5757 5757 5758 5758 5757 5756 5752 5752 5752 5751 5750 5747 5744 5741 5740 5737 5736 5733 5729 5729 5728 5727 5727 5725 5723 5720 5721 5720 5719 5718 5719 5719 5720 5720
5739 5742 5744 5748 5748 5750 5748 5748 5749 5747 5756 5756 5755 5754 5756 5755 5756 5756 5755 5755 5754 5753 5752 5751 5750 5747 5746 5744 5742 5739 5736 5733 5732 5729 5728 5726 5725 5724 5723 5723 5720 5719 5718 5717 5717 5718 5717 5718 5717
5740 5735 5735 5739 5743 5744 5746 5738 5741 5748 5753 5750 5751 5753 5753 5754 5755 5755 5756 5756 5755 5754 5752 5750 5748 5746 5745 5743 5740 5737 5735 5733 5731 5728 5727 5725 5723 5723 5722 5721 5720 5718 5717 5717 5716 5717 5716 5716 5716
5733 5727 5720 5729 5738 5741 5739 5723 5738 5749 5750 5748 5750 5751 5750 5752 5755 5756 5756 5756 5756 5754 5751 5749 5747 5745 5742 5740 5738 5737 5734 5732 5729 5727 5725 5724 5722 5721 5719 5718 5718 5716 5716 5715 5714 5714 5714 5714 5713
5720 5716 5717 5721 5733 5736 5735 5725 5736 5747 5747 5746 5748 5749 5750 5751 5753 5754 5755 5755 5754 5753 5750 5747 5745 5743 5741 5738 5736 5734 5733 5729 5728 5726 5724 5722 5721 5720 5719 5716 5715 5716 5715 5714 5713 5712 5712 5711 5710
5710 5716 5717 5717 5726 5731 5729 5729 5735 5744 5746 5746 5747 5749 5750 5751 5751 5753 5753 5753 5753 5752 5750 5746 5743 5742 5739 5737 5736 5733 5731 5729 5726 5724 5721 5719 5719 5718 5717 5716 5715 5715 5714 5712 5711 5710 5709 5708 5709
5717 5716 5714 5716 5726 5727 5726 5727 5733 5740 5742 5743 5745 5748 5749 5750 5753 5753 5751 5751 5750 5749 5748 5745 5742 5740 5738 5736 5734 5731 5729 5728 5725 5722 5720 5718 5718 5717 5716 5716 5714 5713 5712 5711 5711 5709 5708 5708 5709
5713 5709 5709 5713 5723 5724 5723 5724 5731 5738 5739 5743 5746 5748 5749 5749 5749 5748 5748 5748 5748 5747 5746 5744 5742 5740 5738 5734 5734 5731 5728 5727 5724 5721 5719 5718 5717 5716 5716 5715 5715 5713 5710 5709 5708 5706 5706 5706 5707
5706 5707 5709 5709 5715 5722 5720 5717 5726 5734 5739 5741 5744 5748 5750 5749 5748 5747 5746 5746 5746 5745 5744 5743 5741 5738 5736 5734 5732 5729 5727 5726 5724 5721 5719 5717 5716 5715 5714 5713 5713 5712 5712 5709 5707 5706 5703 5703 5705
5699 5710 5711 5710 5710 5708 5719 5707 5723 5732 5734 5738 5742 5745 5747 5748 5748 5746 5745 5744 5744 5743 5743 5743 5740 5738 5735 5733 5732 5730 5726 5724 5723 5722 5720 5718 5716 5714 5713 5712 5712 5711 5710 5708 5707 5705 5704 5702 5702
5702 5709 5710 5709 5710 5709 5717 5715 5724 5733 5731 5738 5743 5745 5747 5748 5747 5745 5745 5744 5744 5743 5741 5740 5738 5736 5734 5733 5730 5728 5727 5725 5724 5722 5719 5719 5716 5714 5712 5711 5711 5710 5708 5706 5705 5703 5703 5702 5700
5705 5704 5703 5705 5706 5696 5712 5715 5719 5735 5740 5743 5746 5747 5747 5748 5746 5745 5744 5742 5741 5740 5738 5737 5735 5732 5731 5730 5729 5728 5725 5723 5721 5719 5718 5718 5717 5714 5712 5710 5709 5708 5706 5705 5703 5702 5700 5700 5699
5702 5695 5684 5680 5684 5695 5715 5714 5725 5746 5751 5751 5749 5749 5749 5748 5746 5744 5741 5739 5738 5737 5736 5735 5733 5731 5730 5729 5728 5726 5724 5723 5721 5719 5717 5717 5716 5714 5711 5710 5708 5706 5704 5702 5701 5700 5700 5699 5697
5698 5700 5690 5682 5686 5699 5708 5713 5734 5747 5750 5753 5753 5751 5749 5747 5746 5743 5742 5740 5738 5736 5735 5734 5733 5731 5729 5728 5727 5726 5724 5722 5721 5718 5718 5717 5715 5713 5710 5708 5706 5704 5702 5701 5699 5699 5698 5698 5697
5695 5697 5708 5705 5704 5701 5709 5723 5735 5742 5744 5747 5748 5747 5746 5745 5744 5742 5741 5740 5739 5737 5735 5734 5732 5731 5729 5728 5726 5725 5723 5721 5719 5718 5717 5715 5714 5711 5709 5707 5706 5703 5700 5699 5698 5697 5696 5695 5694
5705 5705 5701 5701 5693 5693 5707 5718 5730 5736 5741 5744 5745 5745 5746 5745 5743 5741 5740 5739 5739 5737 5736 5734 5733 5730 5728 5727 5725 5722 5721 5719 5717 5717 5715 5714 5712 5710 5708 5708 5706 5703 5700 5697 5695 5695 5692 5693 5691
5697 5698 5703 5707 5709 5703 5701 5721 5749 5750 5751 5749 5749 5750 5748 5745 5744 5741 5739 5739 5738 5736 5734 5732 5730 5728 5726 5725 5723 5720 5718 5717 5716 5714 5712 5711 5710 5708 5707 5705 5704 5702 5700 5697 5694 5693 5691 5691 5690
5707 5708 5707 5700 5704 5711 5713 5726 5753 5754 5755 5755 5753 5752 5750 5747 5745 5742 5739 5737 5735 5734 5733 5731 5729 5726 5724 5723 5721 5719 5716 5715 5714 5712 5710 5709 5707 5706 5705 5704 5702 5699 5697 5695 5693 5690 5688 5688 5686